Showing default

LINGQIAO VIDEO A, 40959

Orbit data source: Space-Track

LINGQIAO VIDEO A, 40959 is a payload satellite owned by Changguang WJ (CN) in SSO that was launched on Wed, 07 Oct 2015 UTC via a CHANG ZHENG 2D launch vehicle from the Jiuquan Satellite Launch Center, China (JSC). Payloads include a variety of satellites, spacecraft, and rockets equipped with specific instruments for various scientific and technological missions. These include communications satellites like Starlink; space stations such as the ISS; scientific satellites like the Hubble; Earth observation satellites from companies like Planet Labs, Umbra, and HawkEye 360; GPS; miniature CubeSats for education and research; and military/defense satellites.

Loading next visibility...
LINGQIAO VIDEO A details
Identifier
40959, 2015-057B
Orbit
SSO
Last TLE update6 hours ago
Origin
Flag of CNChangguang WJ (CN / PRC)
ManufacturerHARB/CIOMP
MissionOperational Commercial Imaging
Bus & MotorJL-1, Unknown motor
Mass95 kg wet, 95 kg dry
Launch date (UTC)
2015-10-07 (9 years ago)
Launch vehicle
CHANG ZHENG 2D
Launch site
Jiuquan Satellite Launch Center, China (JSC)
Object type
Payload
Rocket body
Debris
Shape & HBRBox + 2 Pan, 1.5 m
Radar Cross Section2.000 m², Medium (>0.1 m² and < 1m²)

Expand to show TLE details & history

TLE from 6 hours ago
0 LINGQIAO VIDEO A
1 40959U 15057B   24339.15350844  .00002467  00000-0  36532-3 0  9997
2 40959  97.6579 351.6037 0015795 291.1407  68.8115 14.75907003492750
Epoch: 2024-12-04T03:41Z
Definitive object data (Epoch: 2024-12-04T03:41:03.129Z)
Latitude-0.00001°
Longitude-137.11208°
Altitude641.303 km
Speed7.539 km/s
True Right ascension23h 26m 24s
True Declination0° 00' 00"
Sunlit
Object was in daylight at TLE epoch
Visualization TLE readout
Latitude-66.52015°
Longitude25.19477°
Altitude659.34 km
Speed7.531 km/s
Apparent Right ascension17h 21m 58s
Apparent Declination-72° 36' 43"
Sunlit
Object is in daylight
Visualization observer readout
Local Sidereal Time07:35:26
Azimuth163.963° S
Elevation-53.492°
Doppler factor1
Orbital elements
Apogee altitude650.393 km
Perigee altitude628.225 km
Semi-major axis7,017.446 km
Eccentricity0.0015795
Inclination97.6579°
RAAN351.6037°
Arg. of periapsis291.1407°
True anomaly68.98038°
Mean anomaly68.8115°
Eccentric anomaly68.89593°
Mean motion3.69211 °/min
BSTAR0.00036532
Orbital period97.51 mins
Loading maneuver chart data...
Loading historical data...
Loading historical data...
Loading historical data...
Loading historical data...
Loading historical data...
Loading historical data...
Loading historical data...

LINGQIAO VIDEO A Visibility forecast

Observer location: undefined°, undefined

Span
Click to sort rows by Start time (UTC) header in descending order
Start Az.
Max El. time (UTC)
Max El. Az.
Max El.
End time (UTC)
End Az.
7 mins2024-12-04 14:01:06.663Z8.499° NNE2024-12-04 14:05:06.663Z226.777° WSW43.009°2024-12-04 14:08:06.663Z199.186° SSW
7 mins2024-12-05 00:58:06.663Z160.114° S2024-12-05 01:01:06.663Z88.78° E44.323°2024-12-05 01:05:06.663Z351.154° N
|